^^
De Soto Valley Weather Station Historical Data
 
Daily Summary for October 23, 2019 Units:  English    Metric   Both
Daily Weekly Monthly Yearly Custom
  Current: High: Low: Average:
Temperature: 37.5 °F 46.2 °F 35.8 °F 39.3 °F
Dew Point: 34 °F 35.9 °F 33.2 °F 34.2 °F
Humidity: 87% 90% 65% 82%
Wind Speed: 1mph 5mph 0mph 0.8mph
Wind Gust: 7mph 12mph - -
WindSouth - - SSE
Pressure: 29.74 in 29.75 in 29.60 in -
Precipitation: 0 in      
Historical Graphs
 
 
Tabular Data for October 23, 2019
Time Temperature Dew Point Pressure Wind Wind Speed Wind Gust Humidity Rainfall Rate (Hourly) solar
00:00 46.2 °F 35.1 °F 29.60 in South 3 mph 6 mph 65% 0 in 0.00 W/m2
00:05 46.2 °F 35.5 °F 29.60 in South 5 mph 10 mph 66% 0 in 0.00 W/m2
00:10 46.1 °F 35.7 °F 29.61 in South 3 mph 8 mph 67% 0 in 0.00 W/m2
00:15 46 °F 35.7 °F 29.61 in South 3 mph 7 mph 67% 0 in 0.00 W/m2
00:20 45.9 °F 35.9 °F 29.61 in South 3.5 mph 2.4 mph 68% 0 in 0.00 W/m2
00:25 45.8 °F 35.8 °F 29.61 in SSW 1 mph 6 mph 68% 0 in 0.00 W/m2
00:30 45.6 °F 35.6 °F 29.61 in South 5 mph 9 mph 68% 0 in 0.00 W/m2
00:35 45.4 °F 35.4 °F 29.61 in South 3 mph 7 mph 68% 0 in 0.00 W/m2
00:40 45.2 °F 35.6 °F 29.61 in South 3 mph 9 mph 69% 0 in 0.00 W/m2
00:45 44.9 °F 35.3 °F 29.61 in South 3 mph 9 mph 69% 0 in 0.00 W/m2
00:50 44.6 °F 35.4 °F 29.61 in South 3 mph 7 mph 70% 0 in 0.00 W/m2
00:55 44.3 °F 35.1 °F 29.61 in South 5 mph 12 mph 70% 0 in 0.00 W/m2
01:00 44.1 °F 35.3 °F 29.61 in South 2 mph 6 mph 71% 0 in 0.00 W/m2
01:05 43.9 °F 35.1 °F 29.61 in South 3 mph 7 mph 71% 0 in 0.00 W/m2
01:10 43.6 °F 35.2 °F 29.62 in South 3 mph 7 mph 72% 0 in 0.00 W/m2
01:15 43.4 °F 35 °F 29.62 in South 3 mph 7 mph 72% 0 in 0.00 W/m2
01:20 43.3 °F 35.2 °F 29.62 in South 1 mph 5 mph 73% 0 in 0.00 W/m2
01:25 43.1 °F 35 °F 29.62 in South 2 mph 9 mph 73% 0 in 0.00 W/m2
01:30 43 °F 34.9 °F 29.62 in Calm   4 mph 73% 0 in 0.00 W/m2
01:35 42.7 °F 35 °F 29.62 in South 3 mph 5 mph 74% 0 in 0.00 W/m2
01:40 42.5 °F 35.1 °F 29.63 in Calm   4 mph 75% 0 in 0.00 W/m2
01:45 42.2 °F 34.9 °F 29.63 in Calm   2 mph 75% 0 in 0.00 W/m2
01:50 42.1 °F 34.7 °F 29.62 in South 2 mph 5 mph 75% 0 in 0.00 W/m2
01:55 41.9 °F 34.9 °F 29.62 in SSW 1 mph 5 mph 76% 0 in 0.00 W/m2
02:00 41.6 °F 35 °F 29.62 in Calm   4 mph 77% 0 in 0.00 W/m2
02:05 41.5 °F 34.8 °F 29.62 in SE 3.5 mph 1.8 mph 77% 0 in 0.00 W/m2
02:10 41.3 °F 34.7 °F 29.63 in SSE 1 mph 4 mph 77% 0 in 0.00 W/m2
02:15 41.1 °F 34.8 °F 29.63 in Calm   3 mph 78% 0 in 0.00 W/m2
02:20 41 °F 35 °F 29.63 in Calm   3 mph 79% 0 in 0.00 W/m2
02:25 40.7 °F 34.7 °F 29.63 in Calm   3 mph 79% 0 in 0.00 W/m2
02:30 40.5 °F 34.8 °F 29.63 in Calm   3 mph 80% 0 in 0.00 W/m2
02:35 40.3 °F 34.6 °F 29.63 in Calm   3 mph 80% 0 in 0.00 W/m2
02:40 40.1 °F 34.4 °F 29.63 in SE 1 mph 4 mph 80% 0 in 0.00 W/m2
02:45 40 °F 34.7 °F 29.64 in Calm   3 mph 81% 0 in 0.00 W/m2
02:50 40 °F 34.6 °F 29.64 in Calm   1 mph 81% 0 in 0.00 W/m2
02:55 39.9 °F 34.5 °F 29.65 in SSE 1 mph 2 mph 81% 0 in 0.00 W/m2
03:00 39.8 °F 34.8 °F 29.65 in Calm   3 mph 82% 0 in 0.00 W/m2
03:05 39.6 °F 34.6 °F 29.65 in SSE 1 mph 3 mph 82% 0 in 0.00 W/m2
03:10 39.5 °F 34.5 °F 29.65 in Calm   1 mph 82% 0 in 0.00 W/m2
03:15 39.4 °F 34.4 °F 29.65 in South 2 mph 5 mph 82% 0 in 0.00 W/m2
03:20 39.3 °F 34.3 °F 29.65 in Calm   2 mph 82% 0 in 0.00 W/m2
03:25 39.3 °F 34.6 °F 29.65 in Calm   2 mph 83% 0 in 0.00 W/m2
03:30 39.2 °F 34.5 °F 29.65 in SSW 1 mph 2 mph 83% 0 in 0.00 W/m2
03:35 39.1 °F 34.4 °F 29.65 in Calm   2 mph 83% 0 in 0.00 W/m2
03:40 39 °F 34.3 °F 29.65 in SW 1 mph 3 mph 83% 0 in 0.00 W/m2
03:45 38.9 °F 34.5 °F 29.65 in NNE 1 mph 3 mph 84% 0 in 0.00 W/m2
03:50 38.8 °F 34.4 °F 29.65 in Calm   1 mph 84% 0 in 0.00 W/m2
03:55 38.6 °F 34.2 °F 29.65 in Calm   3 mph 84% 0 in 0.00 W/m2
04:00 38.4 °F 34.3 °F 29.65 in Calm   5 mph 85% 0 in 0.00 W/m2
04:05 38.2 °F 34.1 °F 29.66 in SE 1 mph 4 mph 85% 0 in 0.00 W/m2
04:10 38.2 °F 34.1 °F 29.66 in SSW 1 mph 4 mph 85% 0 in 0.00 W/m2
04:15 38.3 °F 34.2 °F 29.66 in South 2.3 mph 0.6 mph 85% 0 in 0.00 W/m2
04:20 38.2 °F 34.4 °F 29.66 in Calm   2 mph 86% 0 in 0.00 W/m2
04:25 38.2 °F 34.4 °F 29.67 in Calm   1 mph 86% 0 in 0.00 W/m2
04:30 38.2 °F 34.4 °F 29.67 in Calm   2 mph 86% 0 in 0.00 W/m2
04:35 38.1 °F 34.3 °F 29.68 in Calm   3 mph 86% 0 in 0.00 W/m2
04:40 38.1 °F 34.3 °F 29.68 in Calm   1 mph 86% 0 in 0.00 W/m2
04:45 38 °F 34.2 °F 29.68 in ENE 1.2 mph 0.3 mph 86% 0 in 0.00 W/m2
04:50 37.9 °F 34.1 °F 29.68 in Calm   4 mph 86% 0 in 0.00 W/m2
04:55 37.8 °F 34 °F 29.68 in East 1 mph 4 mph 86% 0 in 0.00 W/m2
05:00 37.8 °F 34 °F 29.68 in Calm   2 mph 86% 0 in 0.00 W/m2
05:05 37.7 °F 33.9 °F 29.68 in Calm   2 mph 86% 0 in 0.00 W/m2
05:10 37.7 °F 33.9 °F 29.69 in Calm   2 mph 86% 0 in 0.00 W/m2
05:15 37.6 °F 33.8 °F 29.69 in Calm   1 mph 86% 0 in 0.00 W/m2
05:20 37.5 °F 34 °F 29.70 in Calm   1 mph 87% 0 in 0.00 W/m2
05:25 37.4 °F 33.9 °F 29.70 in Calm   1 mph 87% 0 in 0.00 W/m2
05:30 37.3 °F 33.8 °F 29.70 in ESE 1 mph 2 mph 87% 0 in 0.00 W/m2
05:35 37.1 °F 33.9 °F 29.70 in Calm   2 mph 88% 0 in 0.00 W/m2
05:40 37 °F 33.8 °F 29.70 in Calm     88% 0 in 0.00 W/m2
05:45 37 °F 33.8 °F 29.70 in Calm   2 mph 88% 0 in 0.00 W/m2
05:50 36.9 °F 33.6 °F 29.70 in Calm   2 mph 88% 0 in 0.00 W/m2
05:55 36.8 °F 33.5 °F 29.70 in Calm   1 mph 88% 0 in 0.00 W/m2
06:00 36.6 °F 33.7 °F 29.70 in Calm   1 mph 89% 0 in 0.00 W/m2
06:05 36.5 °F 33.6 °F 29.70 in Calm   1 mph 89% 0 in 0.00 W/m2
06:10 36.3 °F 33.4 °F 29.71 in Calm   1 mph 89% 0 in 0.00 W/m2
06:15 36.2 °F 33.5 °F 29.71 in Calm   2 mph 90% 0 in 0.00 W/m2
06:20 36.1 °F 33.5 °F 29.71 in Calm     90% 0 in 0.00 W/m2
06:25 36 °F 33.4 °F 29.71 in Calm   1 mph 90% 0 in 0.00 W/m2
06:30 35.9 °F 33.3 °F 29.71 in Calm   2 mph 90% 0 in 0.00 W/m2
06:35 35.8 °F 33.2 °F 29.71 in East 1 mph 5 mph 90% 0 in 0.00 W/m2
06:40 35.8 °F 33.2 °F 29.71 in SSE 1 mph 3 mph 90% 0 in 0.00 W/m2
06:45 35.9 °F 33.3 °F 29.71 in South 3.5 mph 1.3 mph 90% 0 in 0.00 W/m2
06:50 36.1 °F 33.5 °F 29.71 in Calm   2 mph 90% 0 in 0.00 W/m2
06:55 36.2 °F 33.5 °F 29.71 in Calm   2 mph 90% 0 in 0.00 W/m2
07:00 36.3 °F 33.4 °F 29.71 in Calm     89% 0 in 0.00 W/m2
07:05 36.4 °F 33.5 °F 29.72 in Calm   1 mph 89% 0 in 0.00 W/m2
07:10 36.4 °F 33.5 °F 29.72 in Calm   2 mph 89% 0 in 0.00 W/m2
07:15 36.4 °F 33.5 °F 29.71 in Calm   3 mph 89% 0 in 0.00 W/m2
07:20 36.4 °F 33.2 °F 29.71 in Calm   1 mph 88% 0 in 0.00 W/m2
07:25 36.4 °F 33.2 °F 29.71 in Calm   1 mph 88% 0 in 0.00 W/m2
07:30 36.4 °F 33.2 °F 29.72 in Calm   1 mph 88% 0 in 0.00 W/m2
07:35 36.4 °F 33.2 °F 29.72 in Calm   1 mph 88% 0 in 5.00 W/m2
07:40 36.4 °F 33.2 °F 29.72 in Calm   2 mph 88% 0 in 7.00 W/m2
07:45 36.4 °F 33.2 °F 29.73 in Calm   3 mph 88% 0 in 11.00 W/m2
07:50 36.4 °F 33.2 °F 29.73 in Calm   1 mph 88% 0 in 12.00 W/m2
07:55 36.4 °F 33.2 °F 29.73 in Calm   2 mph 88% 0 in 14.00 W/m2
08:00 36.4 °F 33.2 °F 29.73 in Calm   1 mph 88% 0 in 16.00 W/m2
08:05 36.5 °F 33.3 °F 29.74 in Calm     88% 0 in 18.00 W/m2
08:10 36.6 °F 33.4 °F 29.74 in Calm   1 mph 88% 0 in 19.00 W/m2
08:15 36.6 °F 33.4 °F 29.74 in Calm   2 mph 88% 0 in 21.00 W/m2
08:20 36.7 °F 33.5 °F 29.74 in Calm   1 mph 88% 0 in 23.00 W/m2
08:25 36.7 °F 33.5 °F 29.74 in Calm   1 mph 88% 0 in 25.00 W/m2
08:30 36.8 °F 33.5 °F 29.74 in Calm     88% 0 in 28.00 W/m2
08:35 36.8 °F 33.6 °F 29.74 in Calm   1 mph 88% 0 in 30.00 W/m2
08:40 36.9 °F 33.7 °F 29.75 in Calm   1 mph 88% 0 in 32.00 W/m2
08:45 37 °F 33.8 °F 29.75 in SSW 3 mph 5 mph 88% 0 in 35.00 W/m2
08:50 37.5 °F 34 °F 29.74 in South 1 mph 7 mph 87% 0 in 39.00 W/m2
De Soto, Wisconsin, USA
Compliments of Weather Underground - 2 mb